Regional Weather Roundup
Issued by NWS

Home | Current Version | Previous Version | Graphics & Text | Print | Product List | Glossary Off
Versions: 1 2 3 4 5 6 7 8 9 10 11 12 13 14 15 16 17 18 19 20 21 22 23 24 25 26 27 28 29 30 31 32 33 34 35 36 37 38 39 40 41 42 43 44 45 46 47 48 49 50

000
ASUS43 KTOP 180408
RWRKS

WEATHER ROUNDUP FOR KANSAS
NATIONAL WEATHER SERVICE GOODLAND KS
1000 PM CST WED DEC 17 2014

NOTE:  "FAIR" INDICATES FEW OR NO CLOUDS BELOW 12,000 FEET WITH NO
SIGNIFICANT WEATHER AND/OR OBSTRUCTIONS TO VISIBILITY.

KSZ001>006-013>018-027>032-041>047-180500-
NORTHWEST KANSAS

CITY           SKY/WX    TMP DP  RH WIND       PRES   REMARKS
GOODLAND       FOG       24  23  96 E5        30.05S VSB 1
HAYS           CLOUDY    27  19  74 NE9       30.15R
HILL CITY      CLOUDY    26  22  84 E12       30.14S WCI  16
RUSSELL        LGT SNOW  27  26  96 NE6       30.15R VSB 3/4
$$

KSZ061>065-074>080-084>089-180500-
SOUTHWEST KANSAS

CITY           SKY/WX    TMP DP  RH WIND       PRES   REMARKS
DODGE CITY     CLOUDY    30  28  92 SE9       30.07S
ELKHART          N/A     31  25  79 NW5         N/A
GARDEN CITY    LGT SNOW  30  30 100 E9        30.04F VSB 3/4
GREAT BEND     CLOUDY    28  25  86 E9        30.14S VSB 1/2
LIBERAL        CLOUDY    36  30  80 SE8       30.04S VSB 3/4
PRATT          LGT SNOW  30  30 100 E5        30.13R
$$

KSZ066>073-081>083-090>101-180500-
SOUTHEAST KANSAS

CITY           SKY/WX    TMP DP  RH WIND       PRES   REMARKS
CHANUTE        MIX PCPN  31  29  92 E6        30.22S FOG
COFFEYVILLE    CLOUDY    32  31  96 E6        30.23R FOG
HUTCHINSON     LGT SNOW  30  27  88 E8        30.17R FOG
MEDICINE LODGE   N/A     31  31 100 E6        30.12F
NEWTON         CLOUDY    28  23  80 E7        30.18S
PARSONS        MIX PCPN  33  32  96 E5        30.23S FOG
WICHITA INTL   LGT SNOW  31  28  89 E8        30.17S FOG
WICHITA JABRA  LGT SNOW  29  27  92 E7        30.17F FOG
WICHITA MCCONL LGT SNOW  30  28  94 E8        30.17F FOG
WINFIELD       CLOUDY    32  31  96 E8        30.20S FOG
$$

KSZ007>012-019>026-033>040-048>060-102>105-180500-
NORTHEAST KANSAS

CITY           SKY/WX    TMP DP  RH WIND       PRES   REMARKS
CONCORDIA      FLURRIES  27  20  75 E7        30.20S
EMPORIA        LGT SNOW  28  27  96 E7        30.20F FOG
LAWRENCE       CLOUDY    31  23  72 CALM      30.25F
MANHATTAN      LGT SNOW  27  26  96 NE7       30.22S VSB 3/4
MARYSVILLE     CLOUDY    28  23  80 E6        30.22F
OLATHE IND     LGT SNOW  29  24  82 SE5       30.24F
OLATHE EXE     CLOUDY    30  23  75 E7        30.22F
SALINA         LGT SNOW  29  27  92 E9        30.20R FOG
TOPEKA BILLARD CLOUDY    31  22  69 NE3       30.25F
TOPEKA FORBES  FLURRIES  31  23  72 N3        30.23F
$$



USA.gov is the U.S. government's official web portal to all federal, state and local government web resources and services.